Overview Statistics Trail Chart Weather Telemetry Raw packets
 

This is the latest recevied weather packets stored in our database for station/object KV4OP. If no packets are shown the sender has not sent any weather packets the latest 10 day(s).

<< 5 6 7 8 9 10 11 >>
Time Temp. Humidity Pressure Rain* Wind** Luminosity Snow
1788612304 26.67° C 98% 1015.4 hPa 0 mm - - -
1788612013 26.11° C 99% 1015.4 hPa 0 mm - - -
1788611705 26.67° C 99% 1015.4 hPa 0 mm - - -
1788611405 26.11° C 99% 1015.3 hPa 0 mm - - -
1788611104 26.11° C 99% 1015.4 hPa 0 mm - - -
1788610824 26.11° C 99% 1015.3 hPa 0 mm - - -
1788610504 26.11° C 99% 1015.4 hPa 0 mm - - -
1788610205 26.11° C 99% 1015.3 hPa 0 mm - - -
1788609905 25.56° C 99% 1015.3 hPa 0 mm - - -
1788609617 25.56° C 99% 1015.3 hPa 0 mm - - -
1788609333 25.56° C 99% 1015 hPa 0 mm - - -
1788609005 25.56° C 99% 1014.9 hPa 0 mm - - -
1788608705 25.56° C 99% 1014.9 hPa 0 mm - - -
1788608413 25° C 99% 1014.9 hPa 0 mm - - -
1788608104 25° C 99% 1014.8 hPa 0 mm - - -
1788607805 25.56° C 99% 1014.8 hPa 0 mm - - -
1788607505 25° C 99% 1014.8 hPa 0 mm - - -
1788607213 25° C 99% 1014.8 hPa 0 mm - - -
1788606905 25.56° C 99% 1014.7 hPa 0 mm - - -
1788606605 25° C 99% 1014.6 hPa 0 mm - - -
1788606305 25° C 99% 1014.5 hPa 0 mm - - -
1788606015 25° C 99% 1014.5 hPa 0 mm - - -
1788605705 25° C 99% 1014.5 hPa 0 mm - - -
1788605405 25° C 99% 1014.3 hPa 0 mm - - -
1788605105 25° C 99% 1014.4 hPa 0 mm - - -

* Rain latest hour (hover to see other rain measurements)
** Current wind speed in m/s (hover to see current wind gust speed)